Погода в Пыёлдине

Россия / Республика Коми     60°58′02″N   50°14′41″E
темп.,
°C
ветер,
м/с
пор.,
м/с
влажн.,
%
обл.,
%
осадки,
мм/ч
давл.,
гПа
погр.,
м
12 мая, ср
ср1200:00+10юз22865 0.0 102929
03:00+9юз24895 0.0 103064
06:00+13юз2571100 0.0 1030200
09:00+18юз355225 0.0 1029679
12:00+22зюз3542100 0.0 10281118
15:00+23зюз354099 0.0 10271233
18:00+20зюз2256100 0.0 102737
21:00+15зюз117412 0.0 102711
13 мая, чт
чт1300:00+13юз118098 0.0 102710
03:00+12ююз118341 0.0 102810
06:00+16ююз12664 0.0 1028155
09:00+22ююз23440 0.0 1027820
12:00+25юз24330 0.0 10261673
15:00+25юз25335 0.0 10242490
18:00+21зюз245226 0.0 1023100
21:00+19ю01599 0.0 102211
14 мая, пт
пт1400:00+16ю226918 0.0 102242
03:00+14ююз2780100 0.0 1021138
06:00+17ю376799 0.0 1021243
09:00+22ю474927 0.0 1019920
12:00+24ююз59437 0.0 10181979
15:00+24юз584510 0.0 10172157
18:00+22з3853100 0.0 1017840
21:00+17юз2673100 0.0 1017103
15 мая, сб
сб1500:00+14зюз22826 0.2 101718
03:00+13зюз118910 0.2 101811
06:00+17юз237151 0.0 1017250
09:00+21зюз3652100 0.0 10161336
12:00+24зюз4742100 0.0 10152687
15:00+23зсз374928 0.3 10151717
18:00+22сз135599 0.0 1015230
21:00+15в25857 0.6 101479
16 мая, вс
вс1600:00+15юв31290100 2.1 1012323
03:00+15ю31290100 2.1 1011327
06:00+17ююз311796 0.0 1011429
09:00+23юз5115583 0.0 10101194
12:00+27юз6113888 0.0 10082627
15:00+19з31073100 0.9 1008433
18:00+18ю4117690 2.3 1008544
21:00+15юз312914 3.3 1008271